Flag for U.S.A. Weather past 2 weeks in Anchorage, Alaska, U.S.A.

Now
72 °F

Light rain. Broken clouds.


Feels Like: 77 °F
Forecast: 57 / 62 °F
Wind: 13 mph from South

Location: Lake Hood Seaplane

Current Time: Jul 6, 2015 at 4:56:50 PM

Latest Report: Jul 6, 2015 at 3:53 PM


Visibility: 10 mi

Pressure: 29.97 "Hg

Humidity: 49%

Dew point: 52 °F

Location of AnchorageLocation

Historic Weather in Anchorage — Graph

°F

Anchorage temperature yesterday

Maximum temperature yesterday: 74 °F (at 3:53 PM)
Minimum temperature yesterday: 58 °F (at 3:53 AM)
Average temperature yesterday: 65 °F

Past Weeks' High & Low Weather Summary

 TemperatureHumidityPressure
High78 °F (Jul 6, 2:53 PM)93% (Jul 3, 2:53 AM)30.24 "Hg (Jul 3, 2:53 AM)
Low51 °F (Jul 2, 5:53 AM)32% (Jun 24, 9:53 PM)29.76 "Hg (Jun 25, 7:53 PM)
Average61 °F64%30.01 "Hg
* Reported Jun 21 2:53 PM — Jul 6 2:53 PM, Anchorage, Weather by CustomWeather, © 2015

Note: Actual official high and low records may vary slightly from our data, if they occured in-between our weather recording intervals... More about our weather records

Advertising

Anchorage weather history for previous 24 hours

 ConditionsComfort  
Time TempWeatherWind HumidityBarometerVisibility
2:53 PM
Mon, Jul 6
78 °FSunny.No wind39%29.98 "Hg10 mi
1:53 PM76 °FSunny.No wind45%29.99 "Hg10 mi
12:53 PM77 °FSunny.5 mph47%30.01 "Hg10 mi
11:53 AM73 °FSunny.No wind51%30.03 "Hg10 mi
10:53 AM72 °FSunny.5 mph53%30.05 "Hg10 mi
9:53 AM67 °FSunny.5 mph63%30.06 "Hg10 mi
8:53 AM65 °FSunny.5 mph68%30.07 "Hg10 mi
7:53 AM66 °FSunny.No wind68%30.07 "Hg10 mi
6:53 AM64 °FSunny.No wind70%30.08 "Hg10 mi
5:53 AM61 °FSunny.No wind81%30.09 "Hg10 mi
4:53 AM59 °FClear.No wind84%30.10 "Hg10 mi
3:53 AM60 °FHaze.No wind80%30.11 "Hg6 mi
2:53 AM61 °FClear.No wind81%30.11 "Hg10 mi
1:53 AM63 °FClear.No wind75%30.12 "Hg10 mi
12:53 AM63 °FPassing clouds.3 mph78%30.12 "Hg10 mi
11:53 PM
Sun, Jul 5
63 °FSunny.No wind78%30.12 "Hg10 mi
10:53 PM65 °FPartly sunny.No wind66%30.13 "Hg10 mi
9:53 PM68 °FLight rain. Mostly cloudy.5 mph61%30.14 "Hg7 mi
8:53 PM69 °FPartly sunny.5 mph59%30.13 "Hg10 mi
7:53 PM72 °FPartly sunny.5 mph55%30.13 "Hg10 mi
6:53 PM72 °FOvercast.5 mph52%30.14 "Hg9 mi
5:53 PM70 °FOvercast.6 mph59%30.15 "Hg10 mi
4:53 PM73 °FScattered clouds.5 mph48%30.15 "Hg10 mi
Weather by CustomWeather, © 2015

See weather overviewHow to use our weather pages